Location: Killam
(52.7910°N, 111.8608°W)
Time: 11:45:32
(UTC+00:00)

CUBEBUG 2 - Pass Details

Date: 16 March 2026
Orbit: 548 x 627 km, 97.9° (Epoch: 13 April)

Event Time Altitude Azimuth Distance (km) Brightness Sun altitude
Rises 11:40:40 0° 2° (N) 2,892 ? -18.3°
Reaches altitude 10° 11:43:38 10° 340° (NNW) 1,995 ? -17.9°
Enters shadow 11:45:58 15° 307° (NW) 1,684 ? -17.6°
